Weather History for KLUK - October, 2013

Change the Weather History Date:

Monday, October 7, 2013

  Actual Average (KCVG) Record (KCVG)
Temperature  
Mean Temperature 54 °F 59 °F  
Max Temperature 62 °F 69 °F 90 °F (2007)
Min Temperature 46 °F 48 °F 27 °F (1952)
Degree Days  
Heating Degree Days 11 7  
Month to date heating degree days 45  
Since 1 July heating degree days 103  
Cooling Degree Days 0 1  
Month to date cooling degree days 9  
Year to date cooling degree days 1114  
Growing Degree Days 4 (Base 50)    
Moisture  
Dew Point 45 °F    
Average Humidity 76    
Maximum Humidity 96    
Minimum Humidity 50    
Precipitation  
Precipitation 0.00 in 0.11 in 1.46 in (1927)
Month to date precipitation 0.71  
Year to date precipitation 33.13  
Snow  
Snow 0.00 in 0.00 in 0.00 in ()
Month to date snowfall 0.0  
Since 1 July snowfall 0.0  
Since 1 September snowfall 0.0  
Snow Depth -    
Sea Level Pressure  
Sea Level Pressure 30.00 in    
Wind  
Wind Speed 8 mph (WSW)    
Max Wind Speed 15 mph    
Max Gust Speed 20 mph    
Visibility 10 miles    
Events      
T = Trace of Precipitation, MM = Missing Value Source: NWS Daily Summary

Daily Weather History Graph

Daily Weather History Graph

Search for Another Location

Airport or City:

Trip Planner

Search our weather history database for the weather conditions in past years. The results will help you decide how hot, cold, wet, or windy it might be!

Date:

Astronomy

Oct. 07, 2013 Rise Set
Actual Time 7:39 AM EDT 7:10 PM EDT
Civil Twilight 7:12 AM EDT 7:37 PM EDT
Nautical Twilight 6:41 AM EDT 8:08 PM EDT
Astronomical Twilight 6:10 AM EDT 8:39 PM EDT
Moon 10:27 AM EDT (10/7) 8:56 PM EDT (10/7)
Length of Visible Light 12h 24m
Length of Day
11h 30m
Waxing Crescent, 8% of the Moon is Illuminated
Oct 7
Waxing Crescent
Oct 11
First Quarter
Oct 18
Full
Oct 26
Last Quarter
Nov 3
New

Hourly Weather History & Observations

Time (EDT) Temp. Dew Point Humidity Pressure Visibility Wind Dir Wind Speed Gust Speed Precip Events Conditions
12:53 AM 55.0 °F 48.9 °F 80% 29.87 in 10.0 mi West 9.2 mph - N/A   Overcast
1:02 AM 55.4 °F 46.4 °F 72% 29.88 in 10.0 mi West 13.8 mph 18.4 mph N/A   Overcast
1:53 AM 52.0 °F 44.1 °F 74% 29.88 in 10.0 mi WSW 8.1 mph - N/A   Overcast
2:53 AM 48.9 °F 44.1 °F 83% 29.89 in 10.0 mi SW 5.8 mph - N/A   Partly Cloudy
3:53 AM 48.0 °F 45.0 °F 89% 29.88 in 10.0 mi SW 6.9 mph - N/A   Clear
4:53 AM 48.0 °F 43.0 °F 83% 29.88 in 10.0 mi SW 6.9 mph - N/A   Clear
5:53 AM 48.0 °F 44.1 °F 86% 29.89 in 10.0 mi SW 6.9 mph - N/A   Clear
6:53 AM 48.0 °F 44.1 °F 86% 29.91 in 10.0 mi SW 6.9 mph - N/A   Mostly Cloudy
7:53 AM 50.0 °F 45.0 °F 83% 29.92 in 10.0 mi SW 6.9 mph - N/A   Overcast
8:53 AM 50.0 °F 45.0 °F 83% 29.95 in 10.0 mi SSW 10.4 mph - N/A   Mostly Cloudy
9:45 AM 53.6 °F 46.4 °F 77% 29.96 in 10.0 mi WSW 11.5 mph - N/A   Mostly Cloudy
9:53 AM 52.0 °F 46.0 °F 80% 29.97 in 10.0 mi WSW 10.4 mph - N/A   Mostly Cloudy
10:53 AM 55.0 °F 45.0 °F 69% 29.98 in 10.0 mi WSW 10.4 mph 19.6 mph N/A   Overcast
11:53 AM 55.9 °F 44.1 °F 64% 30.01 in 10.0 mi West 15.0 mph - N/A   Mostly Cloudy
12:53 PM 55.9 °F 43.0 °F 62% 30.02 in 10.0 mi WSW 11.5 mph - N/A   Mostly Cloudy
1:53 PM 59.0 °F 43.0 °F 55% 30.02 in 10.0 mi West 8.1 mph 17.3 mph N/A   Mostly Cloudy
2:53 PM 61.0 °F 43.0 °F 52% 30.02 in 10.0 mi WSW 9.2 mph 18.4 mph N/A   Mostly Cloudy
3:53 PM 61.0 °F 43.0 °F 52% 30.03 in 10.0 mi West 11.5 mph - N/A   Partly Cloudy
4:53 PM 62.1 °F 43.0 °F 50% 30.04 in 10.0 mi WSW 6.9 mph - N/A   Partly Cloudy
5:53 PM 60.1 °F 43.0 °F 53% 30.06 in 10.0 mi Variable 6.9 mph - N/A   Scattered Clouds
6:53 PM 60.1 °F 44.1 °F 55% 30.08 in 10.0 mi Calm Calm - N/A   Overcast
7:53 PM 52.0 °F 48.0 °F 86% 30.10 in 10.0 mi SSE 3.5 mph - N/A   Clear
8:53 PM 50.0 °F 48.0 °F 93% 30.12 in 10.0 mi Calm Calm - N/A   Clear
9:53 PM 48.9 °F 46.9 °F 93% 30.16 in 9.0 mi Calm Calm - N/A   Clear
10:53 PM 48.0 °F 46.9 °F 96% 30.17 in 8.0 mi Calm Calm - N/A   Clear
11:45 PM 46.4 °F 44.6 °F 93% 30.18 in 2.5 mi Calm Calm - N/A   Clear
11:53 PM 46.9 °F 45.0 °F 93% 30.19 in 7.0 mi Calm Calm - N/A   Clear